Indianapolis, IN

6:15 PM EDT on June 25, 2017 (GMT -0400)
Indianapolis International

Weather History for KIND - June, 2012

Change the Weather History Date:

Wednesday, June 20, 2012

  Actual Average Record
Temperature  
Mean Temperature 82 °F 73 °F  
Max Temperature 93 °F 83 °F 100 °F (1953)
Min Temperature 70 °F 64 °F 44 °F (1980)
Degree Days  
Heating Degree Days 0 0  
Month to date heating degree days 15 13  
Since 1 June heating degree days 15 13  
Since 1 July heating degree days 4116 5375  
Cooling Degree Days 17 9  
Month to date cooling degree days 162 131  
Year to date cooling degree days 372 215  
Since 1 June cooling degree days 162 131  
Growing Degree Days 32 (Base 50)    
Moisture  
Dew Point 62 °F    
Average Humidity 55    
Maximum Humidity 78    
Minimum Humidity 32    
Precipitation  
Precipitation 0.00 in 0.14 in 2.03 in (2011)
Month to date precipitation 0.05 2.81  
Year to date precipitation 15.11 20.21  
Snow  
Snow 0.00 in 0.00 in 0.00 in ()
Month to date snowfall 0.0 0.0  
Since 1 June snowfall 0.0 0.0  
Since 1 July snowfall 9.8 25.9  
Snow Depth 0.00 in    
Sea Level Pressure  
Sea Level Pressure 30.05 in    
Wind  
Wind Speed 12 mph (SSW)    
Max Wind Speed 20 mph    
Max Gust Speed 25 mph    
Visibility 10 miles    
Events      
T = Trace of Precipitation, MM = Missing Value Source: NWS Daily Summary

Daily Weather History Graph

Daily Weather History Graph

Search for Another Location

Airport or City:

Trip Planner

Search our weather history database for the weather conditions in past years. The results will help you decide how hot, cold, wet, or windy it might be!

Date:

Astronomy

Jun. 20, 2012 Rise Set
Actual Time 6:17 AM EDT 9:16 PM EDT
Civil Twilight 5:44 AM EDT 9:49 PM EDT
Nautical Twilight 5:03 AM EDT 10:30 PM EDT
Astronomical Twilight 4:15 AM EDT 11:18 PM EDT
Moon 7:16 AM EDT (6/20) 10:02 PM EDT (6/20)
Length of Visible Light 16h 04m
Length of Day
14h 59m
New Moon, 1% of the Moon is Illuminated
Jun 20
New Moon
Jun 26
First Quarter
Jul 3
Full
Jul 10
Last Quarter
Jul 19
New

Hourly Weather History & Observations

Time (EDT) Temp. Heat Index Dew Point Humidity Pressure Visibility Wind Dir Wind Speed Gust Speed Precip Events Conditions
12:54 AM 78.1 °F - 63.0 °F 60% 30.05 in 10.0 mi South 10.4 mph - N/A   Clear
1:54 AM 77.0 °F - 63.0 °F 62% 30.04 in 10.0 mi South 10.4 mph - N/A   Clear
2:54 AM 75.9 °F - 63.0 °F 64% 30.04 in 10.0 mi South 9.2 mph - N/A   Clear
3:54 AM 75.0 °F - 63.0 °F 66% 30.04 in 10.0 mi South 9.2 mph - N/A   Clear
4:54 AM 73.0 °F - 63.0 °F 71% 30.04 in 10.0 mi SSW 6.9 mph - N/A   Clear
5:54 AM 71.1 °F - 63.0 °F 75% 30.06 in 10.0 mi South 4.6 mph - N/A   Clear
6:54 AM 70.0 °F - 63.0 °F 78% 30.08 in 10.0 mi SSE 4.6 mph - N/A   Clear
7:54 AM 73.9 °F - 64.0 °F 71% 30.09 in 10.0 mi South 6.9 mph - N/A   Clear
8:54 AM 79.0 °F - 64.0 °F 60% 30.12 in 10.0 mi SSW 8.1 mph - N/A   Clear
9:54 AM 82.9 °F 83.7 °F 62.1 °F 49% 30.12 in 10.0 mi SW 13.8 mph - N/A   Clear
10:54 AM 86.0 °F 86.8 °F 63.0 °F 46% 30.12 in 10.0 mi SW 12.7 mph - N/A   Clear
11:54 AM 89.1 °F 89.3 °F 62.1 °F 40% 30.11 in 10.0 mi SSW 18.4 mph 25.3 mph N/A   Scattered Clouds
12:54 PM 89.1 °F 89.0 °F 61.0 °F 39% 30.10 in 10.0 mi SW 11.5 mph 19.6 mph N/A   Partly Cloudy
1:54 PM 91.0 °F 90.9 °F 61.0 °F 36% 30.08 in 10.0 mi SSW 17.3 mph 21.9 mph N/A   Scattered Clouds
2:54 PM 91.9 °F 91.2 °F 59.0 °F 33% 30.06 in 10.0 mi SSW 12.7 mph 25.3 mph N/A   Scattered Clouds
3:54 PM 91.9 °F 90.8 °F 57.9 °F 32% 30.04 in 10.0 mi SSW 12.7 mph 24.2 mph N/A   Scattered Clouds
4:54 PM 90.0 °F 89.1 °F 59.0 °F 35% 30.03 in 10.0 mi SSW 15.0 mph - N/A   Scattered Clouds
5:54 PM 91.9 °F 91.5 °F 60.1 °F 34% 30.01 in 10.0 mi South 15.0 mph 18.4 mph N/A   Scattered Clouds
6:54 PM 89.1 °F 88.0 °F 57.9 °F 35% 29.99 in 10.0 mi South 17.3 mph - N/A   Scattered Clouds
7:54 PM 88.0 °F 87.1 °F 59.0 °F 37% 29.99 in 10.0 mi South 17.3 mph - N/A   Partly Cloudy
8:54 PM 84.9 °F 84.8 °F 60.1 °F 43% 29.98 in 10.0 mi South 10.4 mph - N/A   Clear
10:54 PM 81.0 °F 81.9 °F 62.1 °F 52% 29.98 in 10.0 mi South 10.4 mph - N/A   Clear
11:54 PM 79.0 °F - 63.0 °F 58% 29.98 in 10.0 mi South 11.5 mph - N/A   Clear